Location: Maussane
(43.7216°N, 4.8055°E)
Time: 06:48:16
(UTC+00:00)

Daily predictions for brighter satellites

Satellite Brightness Start Highest point End
(mag) Time Altitude Azimuth Time Altitude Azimuth Time Altitude Azimuth
Cosmos 1939 Rocket 3.4 18:05:32 10° S 18:09:38 67° W 18:13:47 10° NNW
CZ-2D R/B 3.3 18:05:48 10° SSE 18:09:42 88° WSW 18:13:36 10° NNW
Sich 1 Rocket 4.4 18:06:21 10° SSE 18:10:14 30° E 18:14:11 10° NNE
Helios 1A Rocket 3.7 18:10:21 10° S 18:14:23 57° WSW 18:18:28 10° NNW
Meteor 1-21 4.3 18:09:02 10° N 18:14:33 56° ENE 18:20:01 10° SSE
MOS 1 Rocket 3.9 18:11:37 10° NNE 18:15:33 30° E 18:19:20 10° SSE
CSL-04 Rocket 3.8 18:10:27 10° SE 18:15:42 54° ENE 18:21:03 10° N
Cosmos 1603 3.7 18:10:30 10° NNW 18:16:13 78° ENE 18:21:50 10° SSE
SJ 16-02 2.7 18:13:44 10° SW 18:17:55 45° WNW 18:22:09 10° N
Cosmos 2112 Rocket 4.2 18:16:16 10° NNW 18:21:29 79° WSW 18:26:42 10° SSE
Cosmos 1937 Rocket 3.5 18:16:23 10° S 18:21:37 70° ESE 18:26:49 10° NNE
NOSS 8 (H) 4.3 18:19:10 10° SW 18:22:26 76° NW 18:25:26 10° NE
Cosmos 1680 Rocket 4.1 18:19:49 10° NNW 18:24:59 63° WSW 18:30:08 10° S
Okean 2 Rocket 3.9 18:24:53 10° SSE 18:28:47 30° E 18:32:42 10° NNE
Abrixas rocket 3.1 18:26:15 10° W 18:28:55 35° N 18:31:35 10° ENE
Cosmos 1464 Rocket 4.3 18:24:42 10° SSE 18:30:21 40° E 18:36:03 10° NNE
NOSS 2-2 (E) 3.0 18:27:18 10° SSW 18:30:44 67° ESE 18:34:31 10° NE
Okean-O 3.7 18:30:48 10° S 18:35:04 49° W 18:39:24 10° NNW
USA 116 3.5 18:32:36 10° NNE 18:36:04 88° WNW 18:39:57 10° SSW
ATLAS 2AS CENTAUR R/B 4.3 18:32:39 10° SE 18:36:27 14° ESE 18:40:16 10° ENE
Okean 2 3.8 18:32:40 10° NNW 18:36:50 68° W 18:40:56 10° S
Cosmos 1300 Rocket 4.1 18:33:23 10° SSE 18:37:22 35° E 18:41:24 10° NNE
CZ-2C R/B 2.7 18:35:24 10° SW 18:38:01 19° S 18:39:59 13° SE
NOSS 2-2 (D) 3.0 18:35:58 10° SSW 18:39:25 63° ESE 18:43:09 10° NE
Iridium 4 Rocket 4.1 18:38:37 10° SSW 18:43:26 61° W 18:48:47 10° N
USA 102 4.4 18:38:58 12° SE 18:43:35 28° E 18:45:14 18° NE
YAOGAN 1 3.4 18:40:12 10° S 18:44:25 54° W 18:48:41 10° NNW
Cosmos 1975 3.9 18:41:09 10° SSW 18:45:08 51° WNW 18:49:07 10° N
CENTAUR R/B 3.9 18:38:38 10° NNW 18:45:48 36° NE 18:51:59 16° E
H-2A R/B 1.9 18:43:35 10° SSE 18:48:31 85° ENE 18:53:36 10° NNW
SJ-11-01 4.3 18:44:26 10° SSE 18:49:08 86° WSW 18:53:53 10° NNW
CZ-4 R/B 3.1 18:45:56 10° SSW 18:49:52 38° W 18:53:48 10° NNW
Cosmos 1437 3.7 18:48:30 10° NNW 18:51:24 44° W 18:54:15 10° S
Cosmos 1674 4.1 18:49:01 10° NNE 18:51:51 19° ENE 18:52:10 19° E
ATLAS 3B R/B 4.4 18:47:35 10° NNW 18:52:03 18° NNE 18:56:37 10° ENE
Exosat Rocket 4.5 18:48:20 10° SSE 18:53:03 26° ESE 18:57:13 10° NE
ISS -3.9 18:50:26 10° SW 18:53:49 79° SE 18:56:09 19° ENE
Cosmos 1536 Rocket 4.2 18:52:22 10° N 18:56:30 37° ENE 18:58:59 20° SE
USA 238 DEB 4.2 18:50:37 10° NNW 18:57:33 48° NE 19:02:30 20° ESE
USA 238 4.3 18:50:43 10° NNW 18:57:39 48° NE 19:02:35 20° ESE
Cosmos 1891 Rocket 4.4 18:51:38 10° S 18:57:45 71° E 19:03:46 10° NNE
In-Cosmos 22 4.1 18:53:55 10° N 18:59:08 56° ENE 19:04:23 10° SSE
ARGOS 3.1 18:56:41 10° SSE 19:02:02 85° ENE 19:07:27 10° NNW
Cosmos 1025 Rocket 3.0 19:02:12 10° N 19:06:33 62° E 19:10:02 16° SSE
CZ-2C R/B 2.9 19:01:31 10° NNE 19:06:55 51° E 19:12:22 10° S
Cosmos 1707 2.7 19:05:56 10° N 19:09:47 81° W 19:13:36 10° S
Cosmos 2151 Rocket 3.6 19:05:46 10° S 19:10:07 58° E 19:14:32 10° NNE
USA 186 1.5 19:13:02 36° SSE 19:14:10 78° ENE 19:17:24 10° N
Ariane Rocket 2.9 19:12:56 16° SSE 19:17:00 72° ENE 19:22:05 10° N
SJ-6B 2.7 19:16:15 38° SE 19:17:25 58° ENE 19:21:08 10° N
CZ-2C R/B 4.4 19:13:18 10° SSW 19:18:11 41° W 19:23:23 10° NNW
Cosmos 1844 3.9 19:13:52 10° S 19:19:16 45° ESE 19:24:38 10° NE
FREGAT/IRIS 3.4 19:20:39 32° NNE 19:20:39 32° NNE 19:22:17 10° N
Cosmos 2263 Rocket 3.9 19:16:28 10° WSW 19:21:28 33° NW 19:26:31 10° N
NOSS 2-2 (C) 4.3 19:20:43 10° WSW 19:24:05 43° NW 19:27:49 10° NNE
Nadezhda 4 Rocket 3.8 19:18:03 10° N 19:24:11 73° E 19:29:17 15° SSE
Cosmos 494 Rocket 4.5 19:19:49 10° N 19:24:49 42° ENE 19:26:05 36° E
NOSS 3-2 (A) 4.1 19:17:53 10° NW 19:25:26 71° NE 19:30:19 28° SE
MOS 1 4.2 19:21:25 18° SSE 19:25:40 75° ENE 19:31:24 10° N
Cosmos 2034 Rocket 3.9 19:21:29 10° S 19:27:51 81° E 19:34:14 10° N
Cosmos 1844 Rocket 2.5 19:22:26 10° SSW 19:27:56 66° ESE 19:33:29 10° NNE
USA 102 4.1 19:24:06 24° SSE 19:28:08 64° WSW 19:29:59 23° NW
Cosmos 2298 Rocket 4.0 19:25:01 10° SSW 19:30:21 89° WNW 19:35:44 10° NNE
SPOT 3 Rocket 3.8 19:32:57 41° ESE 19:34:00 47° ENE 19:38:56 10° N
Resurs 01 Rocket 2.4 19:42:54 37° NE 19:42:54 37° NE 19:46:28 10° N
USA 234 3.2 19:37:43 10° NE 19:44:12 63° SE 19:50:41 10° SW
Cosmos 1867 4.5 19:40:40 10° NW 19:45:51 44° WSW 19:49:02 21° S
MetOp-A 4.1 19:42:59 27° S 19:46:00 82° WSW 19:51:24 10° NNW
Lacrosse 5 rocket 4.1 19:44:08 10° NW 19:46:42 15° N 19:49:18 10° NNE
OBJECT-B 2.2 19:52:33 34° NNW 19:52:33 34° NNW 19:54:30 10° NNW
Cosmos 1833 Rocket 4.1 19:47:01 10° N 19:51:25 22° NE 19:51:25 22° NE
Meteor 1-15 Rocket 4.2 19:46:44 10° S 19:52:21 86° W 19:58:05 10° N
Cosmos 1626 4.1 19:54:40 10° N 19:56:03 20° NNE 19:56:03 20° NNE
ARIANE 5 R/B 4.1 20:01:02 25° NNE 20:01:02 25° NNE 20:03:15 10° N
NOSS 3-2 (C) 4.0 19:52:41 10° NW 20:00:16 75° NE 20:03:03 46° SE
Cosmos 1634 Rocket 3.9 19:59:03 51° SSE 20:00:28 65° E 20:06:36 10° NNE
DMSP B5D2-2 4.4 19:55:18 10° N 20:00:33 65° WNW 20:05:46 10° SSW
BREEZE-M TANK 2.7 19:56:46 10° WSW 20:04:27 84° NNW 20:04:38 81° NE
Cosmos 2285 Rocket 3.9 20:01:31 10° SSW 20:07:49 87° WNW 20:14:13 10° NNE
Cosmos 1125 Rocket 3.7 20:02:38 10° SSW 20:07:55 69° WNW 20:13:15 10° NNE
Okean 1 Rocket 3.2 20:08:19 73° WNW 20:08:19 73° WNW 20:12:46 10° N
Cosmos 1627 Rocket 4.4 20:11:57 10° N 20:18:23 88° WSW 20:19:38 61° S
Resurs 1-3 4.2 20:18:55 55° W 20:18:55 55° W 20:23:01 10° NNW
Cosmos 1092 Rocket 4.2 20:17:33 10° NNW 20:23:39 65° W 20:25:37 43° SSW
Meteor 2-5 Rocket 3.8 20:19:14 10° NNW 20:24:52 72° W 20:25:27 66° SW
ATLAS 2AS CENTAUR R/B 2.9 20:18:17 10° SSW 20:26:08 69° ESE 20:33:59 10° NE
Cosmos 2026 Rocket 4.0 20:23:33 10° N 20:29:55 77° W 20:30:53 64° SSW
ISS -0.8 20:27:58 10° WNW 20:29:07 17° WNW 20:29:07 17° WNW
Cosmos 2082 Rocket 3.7 20:28:53 10° N 20:32:16 24° NNE 20:32:16 24° NNE
Meteor 1-22 Rocket 4.3 20:34:25 77° W 20:34:33 78° W 20:40:36 10° N
CENTAUR R/B 3.2 20:29:09 10° NW 20:37:21 78° WSW 20:39:10 60° SSE
Cosmos 2279 Rocket 4.2 20:44:35 62° NNE 20:44:35 62° NNE 20:49:44 10° N
ATLAS 3B R/B 3.1 20:37:47 10° NNW 20:44:10 50° NE 20:44:10 50° NE
COSMOS 2406 3.8 20:38:53 10° NNW 20:43:10 50° N 20:43:10 50° N
Meteor 1-24 Rocket 4.2 20:42:10 10° NNW 20:47:08 58° WNW 20:47:08 58° WNW
Terra 4.2 21:02:36 16° N 21:02:36 16° N 21:03:41 10° N
Lacrosse 4 Rocket 4.4 21:06:22 10° NNW 21:06:37 11° N 21:06:37 11° N
Resurs 01 Rocket 4.2 21:20:28 18° WNW 21:20:28 18° WNW 21:22:19 10° NW
USA 234 4.0 21:24:44 34° NNE 21:27:05 48° NNW 21:33:18 10° W
Lacrosse 5 rocket 4.4 21:24:04 10° NNW 21:25:05 14° NNW 21:25:05 14° NNW
Cosmos 1833 Rocket 4.3 21:30:14 10° NNW 21:33:07 31° NW 21:33:07 31° NW
ATLAS 2AS CENTAUR R/B 4.2 22:10:24 10° WSW 22:17:42 38° NW 22:24:55 10° NNE
